Waarnemingen

Advertentie
Mijn weer
Ahaus, Duitsland (10309): temperatuur & dauwpunt: 11.01.2019 02:00:00 - 17.01.2019 02:00:00 (CET)Ahaus, Duitsland (10309): temperatuur 5cm & temperatuur -5cm: 11.01.2019 02:00:00 - 17.01.2019 02:00:00 (CET)Ahaus, Duitsland (10309): temperatuur -20cm & temperatuur -100cm: 11.01.2019 02:00:00 - 17.01.2019 02:00:00 (CET)Ahaus, Duitsland (10309): windsnelheid & windstoten: 11.01.2019 02:00:00 - 17.01.2019 02:00:00 (CET)Ahaus, Duitsland (10309): windrichting: 11.01.2019 02:00:00 - 17.01.2019 02:00:00 (CET)Ahaus, Duitsland (10309): luchtdruk: 11.01.2019 02:00:00 - 17.01.2019 02:00:00 (CET)Ahaus, Duitsland (10309): zicht: 11.01.2019 02:00:00 - 17.01.2019 02:00:00 (CET)Ahaus, Duitsland (10309): Zonneschijnduur: 11.01.2019 02:00:00 - 17.01.2019 02:00:00 (CET)Ahaus, Duitsland (10309): neerslag: 11.01.2019 02:00:00 - 17.01.2019 02:00:00 (CET)
Datum & Tijd tt [°C] td [°C] tt 5cm [°C] tt -5cm [°C] tt -20cm [°C] tt -100cm [°C] ff [km/u] ff [kn] fx [km/u] fx [kn] dd ppp [hPa] vv [km] sd [min] rr [mm]
17.01.2019 02:00:00 4,3 3,2 3,7 4,5 4,9 6,8 19 10 38 21 W 1000,9 8 0 1,9
17.01.2019 01:00:00 4,9 3,5 4,2 4,4 4,9 6,8 22 12 44 24 ZW 1000,3 4,7 0 0,5
17.01.2019 00:00:00 4,8 3,3 4,1 4,4 5,0 6,8 24 13 41 22 ZW 1000,5 4,4 0 0,1
16.01.2019 23:00:00 5,3 2,3 4,6 4,4 5,0 6,8 27 14 41 22 ZW 1000,7 14 0 0,0
16.01.2019 22:00:00 5,5 1,8 5,1 4,4 5,1 6,8 22 12 46 25 ZW 1001,4 20 0 0,0
16.01.2019 21:00:00 5,4 1,7 4,9 4,4 5,1 6,8 26 14 48 26 ZZW 1001,6 19 0 0,0
16.01.2019 20:00:00 5,4 1,7 5,0 4,3 5,2 6,8 25 14 41 22 ZW 1002,7 22 0 0,0
16.01.2019 19:00:00 5,2 1,6 4,8 4,4 5,3 6,8 24 13 35 19 ZW 1003,4 24 0 0,0
16.01.2019 18:00:00 5,0 1,5 4,5 4,6 5,4 6,8 22 12 37 20 ZZW 1003,9 22 0 0,0
16.01.2019 17:00:00 5,2 1,6 4,7 5,1 5,4 6,8 26 14 46 25 ZZW 1004,4 20 0 0,0
16.01.2019 16:00:00 5,7 2,0 5,4 5,5 5,4 6,8 25 14 44 24 ZW 1005,5 23 0 0,0
16.01.2019 15:00:00 6,0 2,4 5,9 5,7 5,3 6,8 25 13 44 24 ZZW 1005,8 22 0 0,0
16.01.2019 14:00:00 5,9 2,6 5,9 5,6 5,3 6,8 21 12 48 26 ZW 1006,9 16 0 0,0
16.01.2019 13:00:00 6,1 2,7 6,0 5,6 5,3 6,8 23 12 47 26 ZW 1008,1 19 0 0,0
16.01.2019 12:00:00 6,2 2,8 6,1 5,5 5,3 6,8 23 13 42 23 ZW 1008,9 28 0 0,0
16.01.2019 11:00:00 6,2 2,7 6,0 5,4 5,2 6,8 22 12 47 25 ZW 1009,5 33 0 0,0
16.01.2019 10:00:00 6,0 3,5 5,9 5,3 5,2 6,8 27 15 46 25 ZW 1009,9 21 0 0,0
16.01.2019 09:00:00 6,1 4,0 5,8 5,3 5,2 6,8 22 12 39 21 ZW 1009,9 16 0 0,0
16.01.2019 08:00:00 5,9 4,5 5,5 5,4 5,2 6,8 21 11 37 20 ZW 1010,1 10 0 0,0
16.01.2019 07:00:00 6,1 5,1 5,6 5,4 5,2 6,8 19 10 37 20 ZW 1010,5 6 0 0,0
16.01.2019 06:00:00 6,8 4,8 6,5 5,4 5,2 6,8 23 12 39 21 ZW 1010,8 10 0 0,0
16.01.2019 05:00:00 6,9 4,7 6,6 5,4 5,1 6,8 18 10 35 19 ZW 1011,5 12 0 0,0
16.01.2019 04:00:00 6,8 4,6 6,5 5,3 5,1 6,8 16 9 33 18 ZW 1012,1 12 0 0,0
16.01.2019 03:00:00 6,7 4,4 6,4 5,3 5,1 6,8 17 9 29 16 ZW 1012,7 11 0 0,0
16.01.2019 02:00:00 6,6 4,2 6,3 5,2 5,1 6,8 17 9 36 19 ZW 1013,1 14 0 0,0
16.01.2019 01:00:00 6,8 4,0 6,4 5,2 5,1 6,9 20 11 31 17 ZW 1013,4 16 0 0,0
16.01.2019 00:00:00 6,7 4,0 6,3 5,3 5,0 6,9 18 10 33 18 WZW 1013,9 14 0 0,0
15.01.2019 23:00:00 6,8 4,3 6,4 5,3 5,0 6,9 17 9 41 22 ZW 1014,4 14 0 0,0
15.01.2019 22:00:00 6,9 4,3 6,6 5,2 5,0 6,9 18 10 34 18 WZW 1014,5 15 0 0,0
15.01.2019 21:00:00 6,8 4,3 6,4 5,2 5,0 6,9 15 8 33 18 WZW 1014,6 17 0 0,0
15.01.2019 20:00:00 6,7 4,3 6,0 5,2 4,9 6,9 18 10 34 18 WZW 1014,7 13 0 0,0
15.01.2019 19:00:00 6,7 4,1 6,4 5,2 4,9 6,9 19 10 31 17 ZW 1014,6 24 0 0,0
15.01.2019 18:00:00 6,6 4,1 6,3 5,2 4,8 6,9 19 10 32 17 WZW 1014,7 25 0 0,0
15.01.2019 17:00:00 6,5 4,2 6,2 5,3 4,8 6,9 18 10 32 17 WZW 1014,8 23 0 0,0
15.01.2019 16:00:00 6,6 4,3 6,3 5,5 4,7 6,9 17 9 37 20 WZW 1015,0 21 0 0,0
15.01.2019 15:00:00 6,7 4,4 6,5 5,5 4,5 6,9 20 11 38 20 ZW 1015,2 17 0 0,0
15.01.2019 14:00:00 6,6 4,2 6,6 5,4 4,4 6,9 18 10 41 22 WZW 1015,5 15 0 0,0
15.01.2019 13:00:00 6,4 4,3 6,4 5,4 4,2 6,9 21 11 42 23 WZW 1016,1 13 0 0,0
15.01.2019 12:00:00 6,4 3,6 6,9 4,9 4,0 6,9 20 11 35 19 WZW 1016,4 18 0 0,0
15.01.2019 11:00:00 5,3 3,8 5,5 4,0 3,9 6,9 20 11 36 19 WZW 1016,6 9 0 0,0
15.01.2019 10:00:00 4,7 3,5 4,7 3,4 3,8 6,9 19 10 34 18 WZW 1016,8 5 0 0,0
15.01.2019 09:00:00 3,9 2,8 3,8 2,9 3,8 6,9 17 9 34 18 WZW 1017,0 5 0 0,0
15.01.2019 08:00:00 3,5 2,3 3,3 2,6 3,8 6,9 21 11 42 23 WZW 1017,2 6 0 0,0
15.01.2019 07:00:00 2,9 1,9 2,4 2,4 3,9 6,8 20 11 29 16 WZW 1017,3 9 0 0,0
15.01.2019 06:00:00 2,6 1,3 2,3 2,2 3,9 6,8 16 9 31 17 WZW 1018,2 15 0 0,0
15.01.2019 05:00:00 2,5 0,2 2,0 2,2 4,0 6,8 16 9 26 14 WZW 1018,5 21 0 0,0
15.01.2019 04:00:00 2,1 0,1 1,6 2,2 4,1 6,8 12 6 21 12 WZW 1018,9 23 0 0,0
15.01.2019 03:00:00 2,0 -0,2 1,3 2,1 4,2 6,8 12 7 21 12 WZW 1019,4 25 0 0,0
15.01.2019 02:00:00 1,8 -0,1 0,9 2,1 4,4 6,8 9 5 20 11 WZW 1019,3 27 0 0,0
15.01.2019 01:00:00 1,9 0,3 0,4 2,7 4,5 6,8 10 6 22 12 WZW 1019,4 26 0 0,0
15.01.2019 00:00:00 2,2 0,5 1,5 2,9 4,6 6,8 12 7 20 11 W 1019,6 18 0 0,0
14.01.2019 23:00:00 2,5 0,4 2,2 3,0 4,7 6,8 13 7 20 11 W 1019,4 31 0 0,0
14.01.2019 22:00:00 2,7 0,4 2,0 3,0 4,8 6,8 12 7 27 14 W 1019,1 31 0 0,0
14.01.2019 21:00:00 2,6 -0,1 1,3 3,2 5,0 6,8 14 8 26 14 W 1018,7 32 0 0,0
14.01.2019 20:00:00 3,1 0,2 2,6 3,4 5,1 6,8 16 9 23 12 W 1018,0 38 0 0,0
14.01.2019 19:00:00 2,9 0,6 2,4 3,6 5,2 6,8 15 8 32 17 W 1017,4 36 0 0,0
14.01.2019 18:00:00 3,3 0,4 2,9 3,9 5,4 6,8 18 10 32 17 WNW 1017,0 31 0 0,0
14.01.2019 17:00:00 3,7 0,6 2,4 4,6 5,4 6,8 16 9 26 14 WNW 1015,9 28 0 0,0
14.01.2019 16:00:00 4,0 0,4 3,4 5,0 5,5 6,8 17 9 47 26 WNW 1015,3 41 8 0,0
14.01.2019 15:00:00 4,5 0,2 3,3 5,7 5,5 6,8 24 13 55 30 NW 1014,4 34 20 0,5
14.01.2019 14:00:00 5,1 0,3 4,6 6,1 5,4 6,8 25 13 47 26 NW 1013,8 20 35 0,0
14.01.2019 13:00:00 5,0 -0,1 6,3 5,9 5,3 6,8 26 14 42 23 NW 1013,2 28 44 0,0
14.01.2019 12:00:00 4,7 0,9 6,2 5,3 5,2 6,8 27 15 50 27 NW 1012,9 16 47 0,0
14.01.2019 11:00:00 4,3 0,4 5,5 4,4 5,3 6,7 18 10 41 22 NW 1012,3 37 33 0,0
14.01.2019 10:00:00 3,8 0,6 2,7 4,0 5,4 6,7 19 11 35 19 NNW 1011,8 43 1 0,0
14.01.2019 09:00:00 4,2 2,0 3,0 4,1 5,5 6,7 14 8 25 14 WNW 1010,6 24 0 0,0
14.01.2019 08:00:00 4,5 1,6 3,0 4,7 5,6 6,7 16 8 33 18 WNW 1009,4 24 0 0,0
14.01.2019 07:00:00 4,9 3,6 4,2 4,8 5,7 6,7 9 5 15 8 WNW 1008,7 20 0 0,0
14.01.2019 06:00:00 5,3 3,5 4,1 5,0 5,8 6,7 10 5 18 10 WNW 1007,5 23 0 0,0
14.01.2019 05:00:00 5,4 4,3 4,3 5,3 5,9 6,7 10 6 21 12 WNW 1007,0 23 0 0,0
14.01.2019 04:00:00 5,7 4,4 5,3 5,4 5,9 6,7 15 8 27 15 WNW 1006,2 31 0 0,0
14.01.2019 03:00:00 5,6 4,0 5,1 5,4 6,0 6,7 16 9 36 19 WNW 1005,3 57 0 0,0
14.01.2019 02:00:00 5,9 3,8 4,9 5,8 6,1 6,7 21 12 48 26 WNW 1003,9 49 0 1,2
14.01.2019 01:00:00 6,7 4,5 5,5 5,9 6,1 6,7 23 12 42 23 NW 1003,2 2,9 0 0,7
14.01.2019 00:00:00 7,2 3,7 6,2 5,9 6,2 6,7 21 11 50 27 WNW 1002,3 15 0 0,0
13.01.2019 23:00:00 7,0 4,2 5,6 6,1 6,3 6,7 22 12 53 29 NW 1002,1 25 0 0,3
13.01.2019 22:00:00 8,1 3,3 7,5 6,2 6,3 6,7 29 16 51 28 WNW 1001,3 28 0 0,0
13.01.2019 21:00:00 8,5 4,1 7,7 6,5 6,4 6,7 29 16 62 33 WNW 1000,7 29 0 0,0
13.01.2019 20:00:00 8,6 4,9 7,8 6,8 6,4 6,7 29 16 51 28 WNW 1000,4 27 0 0,0
13.01.2019 19:00:00 8,6 5,4 7,7 7,1 6,4 6,7 28 15 52 28 NW 999,9 34 0 0,6
13.01.2019 18:00:00 8,5 6,4 7,4 7,3 6,4 6,7 28 15 61 33 WNW 999,8 6 0 0,3
13.01.2019 17:00:00 9,2 6,8 8,3 7,5 6,3 6,7 30 16 53 29 WNW 1000,0 22 0 0,0
13.01.2019 16:00:00 9,0 7,5 8,4 7,6 6,2 6,7 30 16 54 29 W 1000,4 19 0 0,5
13.01.2019 15:00:00 8,7 8,0 8,3 7,7 6,1 6,6 26 14 44 24 W 1000,7 2,9 0 0,3
13.01.2019 14:00:00 8,7 8,1 8,4 7,6 6,0 6,6 24 13 43 23 W 1001,2 3,0 0 0,3
13.01.2019 13:00:00 8,7 8,0 8,5 7,5 5,9 6,6 24 13 43 23 W 1002,4 3,6 0 0,9
13.01.2019 12:00:00 8,6 7,9 8,3 7,2 5,8 6,6 24 13 47 26 W 1003,5 3,3 0 0,7
13.01.2019 11:00:00 8,6 8,0 8,2 6,9 5,7 6,6 26 14 41 22 W 1004,3 2,9 0 0,5
13.01.2019 10:00:00 8,7 8,0 8,2 6,7 5,6 6,6 22 12 39 21 W 1004,8 7 0 1,8
13.01.2019 09:00:00 8,3 7,8 7,9 6,4 5,5 6,6 19 11 32 18 W 1005,3 1,6 0 1,0
13.01.2019 08:00:00 8,0 7,4 7,5 6,2 5,4 6,6 18 10 33 18 WZW 1005,9 5 0 1,6
13.01.2019 07:00:00 7,7 7,0 7,2 6,0 5,4 6,6 16 9 32 17 WZW 1006,9 4,0 0 0,5
13.01.2019 06:00:00 7,4 6,5 6,9 5,9 5,4 6,6 17 9 31 17 WZW 1007,5 9 0 0,0
13.01.2019 05:00:00 7,1 6,4 6,7 5,7 5,3 6,6 13 7 27 15 WZW 1009,1 10 0 0,0
13.01.2019 04:00:00 7,0 6,3 6,6 5,7 5,3 6,6 16 9 30 16 WZW 1010,2 8 0 0,0
13.01.2019 03:00:00 6,9 6,2 6,4 5,7 5,3 6,6 14 8 26 14 W 1010,2 7 0 0,2
13.01.2019 02:00:00 6,7 6,0 6,2 5,6 5,3 6,6 12 6 27 15 W 1010,8 1,8 0 0,0
13.01.2019 01:00:00 6,7 5,8 6,2 5,5 5,3 6,6 15 8 27 14 W 1011,1 13 0 0,0
13.01.2019 00:00:00 6,8 5,7 6,1 5,6 5,2 6,6 16 8 30 16 W 1011,2 17 0 0,1
12.01.2019 23:00:00 7,1 5,7 6,2 5,6 5,2 6,6 18 10 31 17 W 1011,3 19 0 0,3
12.01.2019 22:00:00 6,8 5,7 6,1 5,5 5,2 6,6 16 9 31 17 W 1011,4 4,1 0 0,0
12.01.2019 21:00:00 6,9 5,7 6,2 5,6 5,2 6,6 18 10 32 18 W 1011,7 18 0 0,4
12.01.2019 20:00:00 7,0 5,6 6,5 5,5 5,2 6,6 18 10 35 19 W 1012,1 7 0 0,0
12.01.2019 19:00:00 6,8 5,5 6,3 5,6 5,2 6,6 15 8 28 15 W 1012,1 24 0 0,0
12.01.2019 18:00:00 6,9 5,4 6,4 5,6 5,1 6,6 20 11 37 20 W 1012,0 33 0 0,0
12.01.2019 17:00:00 7,3 5,9 6,6 5,9 5,1 6,6 17 9 34 18 WNW 1012,5 28 0 0,0
12.01.2019 16:00:00 7,3 6,3 6,9 5,9 5,0 6,6 19 11 34 19 W 1012,8 30 0 0,1
12.01.2019 15:00:00 7,0 6,2 6,6 5,8 4,9 6,6 19 10 36 19 W 1012,7 21 0 0,8
12.01.2019 14:00:00 6,3 5,8 6,1 5,5 4,8 6,6 19 10 38 21 WZW 1013,9 3,1 0 0,8
12.01.2019 13:00:00 5,8 5,2 5,5 5,2 4,8 6,6 20 11 40 21 WZW 1015,0 2,6 0 0,5
12.01.2019 12:00:00 5,7 4,6 5,2 5,1 4,8 6,6 19 10 36 19 WZW 1016,2 6 0 0,1
12.01.2019 11:00:00 5,6 4,2 5,1 4,9 4,8 6,6 19 10 36 19 WZW 1017,4 4,3 0 0,0
12.01.2019 10:00:00 5,5 4,0 5,0 4,8 4,8 6,6 19 10 34 19 WZW 1018,4 8 0 0,0
12.01.2019 09:00:00 5,5 4,0 5,0 4,7 4,8 6,6 16 8 25 13 WZW 1019,1 9 0 0,1
12.01.2019 08:00:00 5,6 3,9 4,7 4,8 4,8 6,6 14 8 30 16 WZW 1019,9 10 0 0,0
12.01.2019 07:00:00 5,6 4,3 4,9 4,9 4,8 6,7 14 8 26 14 WZW 1020,6 22 0 0,0
12.01.2019 06:00:00 5,6 4,3 4,9 5,0 4,8 6,7 15 8 34 18 W 1021,1 27 0 0,0
12.01.2019 05:00:00 5,7 4,9 5,2 5,1 4,8 6,7 13 7 24 13 W 1021,4 14 0 0,1
12.01.2019 04:00:00 5,9 5,3 5,4 5,2 4,8 6,7 16 8 31 17 W 1022,0 21 0 0,4
12.01.2019 03:00:00 5,9 5,4 5,6 5,2 4,8 6,7 16 9 29 16 WNW 1022,4 1,9 0 0,4
12.01.2019 02:00:00 5,9 5,2 5,5 5,2 4,8 6,7 15 8 27 15 WNW 1022,7 1,4 0 0,1
12.01.2019 01:00:00 6,3 5,1 5,8 5,3 4,7 6,7 16 9 31 17 WNW 1022,9 15 0 0,0
12.01.2019 00:00:00 6,3 5,4 5,8 5,4 4,7 6,7 16 8 31 17 WNW 1022,9 22 0 0,0
11.01.2019 23:00:00 6,4 5,6 5,9 5,4 4,6 6,7 16 8 34 19 NW 1023,0 16 0 0,0
11.01.2019 22:00:00 6,6 5,7 6,1 5,4 4,6 6,7 18 10 30 16 WNW 1022,9 26 0 0,0
11.01.2019 21:00:00 6,8 6,0 6,2 5,5 4,5 6,7 16 8 26 14 WNW 1022,7 7 0 0,2
11.01.2019 20:00:00 6,7 6,3 6,4 5,5 4,5 6,8 13 7 30 16 NW 1022,6 1,6 0 0,3
11.01.2019 19:00:00 6,9 6,3 6,4 5,5 4,4 6,8 16 9 27 15 WNW 1022,2 3,6 0 0,2
11.01.2019 18:00:00 7,1 6,2 6,5 5,6 4,3 6,8 14 8 29 16 NW 1022,1 19 0 0,0
11.01.2019 17:00:00 7,3 6,7 6,8 5,8 4,1 6,8 20 11 32 17 NW 1021,8 2,7 0 0,1
11.01.2019 16:00:00 7,3 6,6 7,0 5,9 3,9 6,8 15 8 29 16 WNW 1021,8 4,9 0 0,1
11.01.2019 15:00:00 7,6 6,5 7,3 6,0 3,7 6,8 16 9 29 16 WNW 1021,7 11 0 0,0
11.01.2019 14:00:00 7,3 6,5 7,4 5,4 3,4 6,8 14 7 31 17 WNW 1022,0 19 0 0,0
11.01.2019 13:00:00 7,1 6,4 6,9 4,9 3,2 6,8 14 7 26 14 WNW 1022,6 12 0 0,0
11.01.2019 12:00:00 6,6 6,3 6,5 4,4 3,0 6,8 15 8 22 12 WNW 1022,9 7 0 0,1
11.01.2019 11:00:00 5,9 5,8 6,2 3,6 2,9 6,9 12 7 18 10 WNW 1023,1 2,6 0 0,0
11.01.2019 10:00:00 4,5 4,5 4,4 2,9 2,8 6,9 9 5 13 7 WZW 1023,2 1,2 0 0,0
11.01.2019 09:00:00 3,5 3,5 3,4 2,6 2,7 6,9 8 4 15 8 WZW 1023,4 0,5 0 0,0
11.01.2019 08:00:00 3,3 3,3 3,1 2,4 2,7 6,9 10 5 18 10 W 1023,3 0,9 0 0,1
11.01.2019 07:00:00 2,8 2,8 2,7 2,2 2,6 6,9 10 5 23 13 WZW 1023,3 0,7 0 0,1
11.01.2019 06:00:00 2,5 2,4 2,4 2,1 2,6 6,9 15 8 22 12 WZW 1023,4 0,9 0 0,0
11.01.2019 05:00:00 2,2 2,0 2,1 1,9 2,5 6,9 13 7 23 13 WZW 1023,8 1,4 0 0,0
11.01.2019 04:00:00 1,8 1,5 1,7 1,7 2,5 6,9 13 7 23 12 WZW 1024,1 3,5 0 0,2
11.01.2019 03:00:00 1,5 1,2 1,3 1,5 2,5 6,9 16 8 25 13 ZW 1024,6 1,5 0 0,1
11.01.2019 02:00:00 1,1 0,9 0,9 1,4 2,5 6,9 13 7 22 12 ZW 1025,0 1,7 0 0,4

tt = temperatuur
td = dauwpunt
tt 5cm = temperatuur 5cm
tt -5cm = temperatuur -5cm
tt -20cm = temperatuur -20cm
tt -100cm = temperatuur -100cm
ff = windsnelheid
fx = windstoten
dd = windrichting
ppp = luchtdruk
vv = zicht
sd = Zonneschijnduur
rr = neerslag

Weerstations in de omgeving